Time,TemperatureF,DewpointF,PressureIn,WindDirection,WindDirectionDegrees,WindSpeedMPH,WindSpeedGustMPH,Humidity,HourlyPrecipIn,Conditions,Clouds,dailyrainin,SoftwareType,DateUTC
2013-01-09 00:00:00,38.1,36.5,30.43,South,180,0.0,0.0,94,0.00,,,0.00,Wunderground v.1.15,2013-01-09 05:00:00,
2013-01-09 00:01:00,38.1,36.5,30.43,South,180,0.0,0.0,94,0.00,,,0.00,Wunderground v.1.15,2013-01-09 05:01:00,
2013-01-09 00:03:00,38.2,36.9,30.43,South,180,0.0,0.0,95,0.00,,,0.00,Wunderground v.1.15,2013-01-09 05:03:00,
2013-01-09 00:04:00,38.3,37.0,30.43,South,179,0.0,0.0,95,0.00,,,0.00,Wunderground v.1.15,2013-01-09 05:04:00,
2013-01-09 00:10:00,38.4,37.1,30.42,South,179,0.0,0.0,95,0.00,,,0.00,Wunderground v.1.15,2013-01-09 05:10:00,
2013-01-09 00:16:00,38.5,37.2,30.42,South,187,0.0,0.0,95,0.00,,,0.00,Wunderground v.1.15,2013-01-09 05:16:00,
2013-01-09 00:22:00,38.7,37.4,30.42,South,187,0.0,0.0,95,0.00,,,0.00,Wunderground v.1.15,2013-01-09 05:22:00,
2013-01-09 00:28:00,38.8,37.5,30.42,South,187,0.0,0.0,95,0.00,,,0.00,Wunderground v.1.15,2013-01-09 05:28:00,
2013-01-09 00:34:00,38.9,37.6,30.42,South,187,0.0,0.0,95,0.00,,,0.00,Wunderground v.1.15,2013-01-09 05:34:00,
2013-01-09 00:40:00,39.1,37.5,30.42,South,187,0.0,0.0,94,0.00,,,0.00,Wunderground v.1.15,2013-01-09 05:40:00,
2013-01-09 00:46:00,39.1,37.5,30.42,South,187,0.0,0.0,94,0.00,,,0.00,Wunderground v.1.15,2013-01-09 05:46:00,
2013-01-09 00:52:00,39.1,37.5,30.41,South,187,0.0,0.0,94,0.00,,,0.00,Wunderground v.1.15,2013-01-09 05:52:00,
2013-01-09 00:58:00,39.1,37.5,30.41,South,187,0.0,0.0,94,0.00,,,0.00,Wunderground v.1.15,2013-01-09 05:58:00,
2013-01-09 01:03:00,39.2,37.6,30.40,South,187,0.0,0.0,94,0.00,,,0.00,Wunderground v.1.15,2013-01-09 06:03:00,
2013-01-09 01:08:00,39.1,37.5,30.40,South,179,0.0,0.0,94,0.00,,,0.00,Wunderground v.1.15,2013-01-09 06:08:00,
2013-01-09 01:14:00,39.0,37.4,30.40,South,179,0.0,0.0,94,0.00,,,0.00,Wunderground v.1.15,2013-01-09 06:14:00,
2013-01-09 01:20:00,39.0,37.4,30.40,South,179,0.0,0.0,94,0.00,,,0.00,Wunderground v.1.15,2013-01-09 06:20:00,
2013-01-09 01:26:00,39.0,37.4,30.40,South,179,0.0,0.0,94,0.00,,,0.00,Wunderground v.1.15,2013-01-09 06:26:00,
2013-01-09 01:32:00,39.0,37.4,30.40,South,179,0.0,0.0,94,0.00,,,0.00,Wunderground v.1.15,2013-01-09 06:32:00,
2013-01-09 01:38:00,38.9,37.3,30.40,South,179,0.0,0.0,94,0.00,,,0.00,Wunderground v.1.15,2013-01-09 06:38:00,
2013-01-09 01:44:00,38.8,37.2,30.41,South,179,0.0,0.0,94,0.00,,,0.00,Wunderground v.1.15,2013-01-09 06:44:00,
2013-01-09 01:50:00,38.7,37.1,30.41,South,179,0.0,0.0,94,0.00,,,0.00,Wunderground v.1.15,2013-01-09 06:50:00,
2013-01-09 01:56:00,38.8,37.2,30.41,South,179,0.0,0.0,94,0.00,,,0.00,Wunderground v.1.15,2013-01-09 06:56:00,
2013-01-09 02:02:00,39.0,37.4,30.42,South,179,0.0,0.0,94,0.00,,,0.00,Wunderground v.1.15,2013-01-09 07:02:00,
2013-01-09 02:07:00,39.1,37.5,30.42,North,6,0.0,0.0,94,0.00,,,0.00,Wunderground v.1.15,2013-01-09 07:07:00,
2013-01-09 02:13:00,39.4,38.1,30.42,North,6,0.0,0.0,95,0.00,,,0.00,Wunderground v.1.15,2013-01-09 07:13:00,
2013-01-09 02:19:00,39.8,38.5,30.41,North,6,0.0,0.0,95,0.00,,,0.00,Wunderground v.1.15,2013-01-09 07:19:00,
2013-01-09 02:25:00,40.1,38.5,30.41,ENE,70,0.0,0.0,94,0.00,,,0.00,Wunderground v.1.15,2013-01-09 07:25:00,
2013-01-09 02:31:00,40.3,38.4,30.42,ENE,61,0.0,0.0,93,0.00,,,0.00,Wunderground v.1.15,2013-01-09 07:31:00,
2013-01-09 02:37:00,40.4,38.5,30.42,ENE,61,0.0,0.0,93,0.00,,,0.00,Wunderground v.1.15,2013-01-09 07:37:00,
2013-01-09 02:43:00,40.4,38.5,30.42,ENE,60,0.0,0.0,93,0.00,,,0.00,Wunderground v.1.15,2013-01-09 07:43:00,
2013-01-09 02:49:00,40.2,38.1,30.42,ENE,61,0.0,0.0,92,0.00,,,0.00,Wunderground v.1.15,2013-01-09 07:49:00,
2013-01-09 02:55:00,39.9,38.0,30.42,ENE,61,0.0,0.0,93,0.00,,,0.00,Wunderground v.1.15,2013-01-09 07:55:00,
2013-01-09 03:01:00,39.5,37.4,30.42,ENE,61,0.0,0.0,92,0.00,,,0.00,Wunderground v.1.15,2013-01-09 08:01:00,
2013-01-09 03:06:00,39.1,37.2,30.42,ENE,61,0.0,0.0,93,0.00,,,0.00,Wunderground v.1.15,2013-01-09 08:06:00,
2013-01-09 03:12:00,38.9,37.0,30.42,ENE,62,0.0,0.0,93,0.00,,,0.00,Wunderground v.1.15,2013-01-09 08:12:00,
2013-01-09 03:18:00,38.6,37.0,30.42,ENE,62,0.0,0.0,94,0.00,,,0.00,Wunderground v.1.15,2013-01-09 08:18:00,
2013-01-09 03:23:00,38.3,36.7,30.42,ENE,62,0.0,0.0,94,0.00,,,0.00,Wunderground v.1.15,2013-01-09 08:23:00,
2013-01-09 03:29:00,37.9,36.3,30.41,ENE,62,0.0,0.0,94,0.00,,,0.00,Wunderground v.1.15,2013-01-09 08:29:00,
2013-01-09 03:35:00,37.5,35.9,30.41,ENE,61,0.0,0.0,94,0.00,,,0.00,Wunderground v.1.15,2013-01-09 08:35:00,
2013-01-09 03:41:00,37.2,35.6,30.41,ENE,61,0.0,0.0,94,0.00,,,0.00,Wunderground v.1.15,2013-01-09 08:41:00,
2013-01-09 03:47:00,36.9,35.3,30.41,ENE,61,0.0,0.0,94,0.00,,,0.00,Wunderground v.1.15,2013-01-09 08:47:00,
2013-01-09 03:53:00,36.6,35.3,30.41,ENE,61,0.0,0.0,95,0.00,,,0.00,Wunderground v.1.15,2013-01-09 08:53:00,
2013-01-09 03:59:00,36.3,35.0,30.41,ENE,61,0.0,0.0,95,0.00,,,0.00,Wunderground v.1.15,2013-01-09 08:59:00,
2013-01-09 04:04:00,36.1,34.8,30.41,ENE,61,0.0,0.0,95,0.00,,,0.00,Wunderground v.1.15,2013-01-09 09:04:00,
2013-01-09 04:10:00,35.9,34.6,30.41,ENE,61,0.0,0.0,95,0.00,,,0.00,Wunderground v.1.15,2013-01-09 09:10:00,
2013-01-09 04:16:00,35.8,34.8,30.41,ENE,61,0.0,0.0,96,0.00,,,0.00,Wunderground v.1.15,2013-01-09 09:16:00,
2013-01-09 04:22:00,35.5,34.5,30.40,ENE,61,0.0,0.0,96,0.00,,,0.00,Wunderground v.1.15,2013-01-09 09:22:00,
2013-01-09 04:28:00,35.3,34.3,30.40,ENE,61,0.0,0.0,96,0.00,,,0.00,Wunderground v.1.15,2013-01-09 09:28:00,
2013-01-09 04:34:00,35.3,34.3,30.40,ENE,61,0.0,0.0,96,0.00,,,0.00,Wunderground v.1.15,2013-01-09 09:34:00,
2013-01-09 04:39:00,35.1,34.1,30.40,ENE,61,0.0,0.0,96,0.00,,,0.00,Wunderground v.1.15,2013-01-09 09:39:00,
2013-01-09 04:45:00,35.1,34.1,30.40,ENE,61,0.0,0.0,96,0.00,,,0.00,Wunderground v.1.15,2013-01-09 09:45:00,
2013-01-09 04:51:00,34.9,33.9,30.40,ENE,61,0.0,0.0,96,0.00,,,0.00,Wunderground v.1.15,2013-01-09 09:51:00,
2013-01-09 04:57:00,34.7,33.7,30.40,ENE,61,0.0,0.0,96,0.00,,,0.00,Wunderground v.1.15,2013-01-09 09:57:00,
2013-01-09 05:03:00,34.6,33.8,30.41,ENE,61,0.0,0.0,97,0.00,,,0.00,Wunderground v.1.15,2013-01-09 10:03:00,
2013-01-09 05:09:00,34.4,33.4,30.40,NNE,20,0.0,0.0,96,0.00,,,0.00,Wunderground v.1.15,2013-01-09 10:09:00,
2013-01-09 05:15:00,34.1,33.1,30.40,NNE,20,0.0,0.0,96,0.00,,,0.00,Wunderground v.1.15,2013-01-09 10:15:00,
2013-01-09 05:21:00,33.9,32.9,30.41,NNE,21,0.0,0.0,96,0.00,,,0.00,Wunderground v.1.15,2013-01-09 10:21:00,
2013-01-09 05:27:00,33.7,32.7,30.41,NNE,20,0.0,0.0,96,0.00,,,0.00,Wunderground v.1.15,2013-01-09 10:27:00,
2013-01-09 05:33:00,33.7,32.9,30.41,NNE,20,0.0,0.0,97,0.00,,,0.00,Wunderground v.1.15,2013-01-09 10:33:00,
2013-01-09 05:39:00,33.8,33.0,30.40,NNE,20,0.0,0.0,97,0.00,,,0.00,Wunderground v.1.15,2013-01-09 10:39:00,
2013-01-09 05:45:00,33.9,33.1,30.40,NNE,20,0.0,0.0,97,0.00,,,0.00,Wunderground v.1.15,2013-01-09 10:45:00,
2013-01-09 05:51:00,33.8,33.0,30.40,NNE,20,0.0,0.0,97,0.00,,,0.00,Wunderground v.1.15,2013-01-09 10:51:00,
2013-01-09 05:57:00,33.6,32.8,30.41,NNE,20,0.0,0.0,97,0.00,,,0.00,Wunderground v.1.15,2013-01-09 10:57:00,
2013-01-09 06:04:00,33.4,32.6,30.40,NNE,20,0.0,0.0,97,0.00,,,0.00,Wunderground v.1.15,2013-01-09 11:04:00,
2013-01-09 06:09:00,33.2,32.4,30.40,NNE,20,0.0,0.0,97,0.00,,,0.00,Wunderground v.1.15,2013-01-09 11:09:00,
2013-01-09 06:15:00,33.1,32.3,30.41,NNE,20,0.0,0.0,97,0.00,,,0.00,Wunderground v.1.15,2013-01-09 11:15:00,
2013-01-09 06:21:00,33.0,32.2,30.41,NNE,20,0.0,0.0,97,0.00,,,0.00,Wunderground v.1.15,2013-01-09 11:21:00,
2013-01-09 06:27:00,32.8,32.0,30.41,NNE,20,0.0,0.0,97,0.00,,,0.00,Wunderground v.1.15,2013-01-09 11:27:00,
2013-01-09 06:32:00,32.7,31.9,30.41,NNE,20,0.0,0.0,97,0.00,,,0.00,Wunderground v.1.15,2013-01-09 11:32:00,
2013-01-09 06:38:00,32.5,31.7,30.41,NNE,20,0.0,0.0,97,0.00,,,0.00,Wunderground v.1.15,2013-01-09 11:38:00,
2013-01-09 06:44:00,32.6,31.8,30.41,NNE,20,0.0,0.0,97,0.00,,,0.00,Wunderground v.1.15,2013-01-09 11:44:00,
2013-01-09 06:50:00,32.6,31.8,30.41,NNE,21,0.0,0.0,97,0.00,,,0.00,Wunderground v.1.15,2013-01-09 11:50:00,
2013-01-09 06:56:00,32.6,31.8,30.42,NNE,20,0.0,0.0,97,0.00,,,0.00,Wunderground v.1.15,2013-01-09 11:56:00,
2013-01-09 07:01:00,32.7,31.9,30.42,NNE,20,0.0,0.0,97,0.00,,,0.00,Wunderground v.1.15,2013-01-09 12:01:00,
2013-01-09 07:07:00,32.7,31.9,30.42,NNE,20,0.0,0.0,97,0.00,,,0.00,Wunderground v.1.15,2013-01-09 12:07:00,
2013-01-09 07:12:00,32.6,31.8,30.42,NNE,20,0.0,0.0,97,0.00,,,0.00,Wunderground v.1.15,2013-01-09 12:12:00,
2013-01-09 07:18:00,32.6,31.8,30.42,NNE,20,0.0,0.0,97,0.00,,,0.00,Wunderground v.1.15,2013-01-09 12:18:00,
2013-01-09 07:24:00,32.4,31.6,30.42,NNE,20,0.0,0.0,97,0.00,,,0.00,Wunderground v.1.15,2013-01-09 12:24:00,
2013-01-09 07:30:00,32.3,31.5,30.42,NNE,20,0.0,0.0,97,0.00,,,0.00,Wunderground v.1.15,2013-01-09 12:30:00,
2013-01-09 07:36:00,32.3,31.5,30.43,NNE,20,0.0,0.0,97,0.00,,,0.00,Wunderground v.1.15,2013-01-09 12:36:00,
2013-01-09 07:42:00,32.4,31.6,30.43,NNE,20,0.0,0.0,97,0.00,,,0.00,Wunderground v.1.15,2013-01-09 12:42:00,
2013-01-09 07:48:00,32.9,32.4,30.43,NNE,20,0.0,0.0,98,0.00,,,0.00,Wunderground v.1.15,2013-01-09 12:48:00,
2013-01-09 07:54:00,33.3,32.8,30.43,NNE,20,0.0,0.0,98,0.00,,,0.00,Wunderground v.1.15,2013-01-09 12:54:00,
2013-01-09 08:00:00,33.6,33.1,30.44,NNE,20,0.0,0.0,98,0.00,,,0.00,Wunderground v.1.15,2013-01-09 13:00:00,
2013-01-09 08:06:00,34.2,33.7,30.44,NNE,20,0.0,1.0,98,0.00,,,0.00,Wunderground v.1.15,2013-01-09 13:06:00,
2013-01-09 08:12:00,35.0,34.5,30.44,SW,219,0.0,1.0,98,0.00,,,0.00,Wunderground v.1.15,2013-01-09 13:12:00,
2013-01-09 08:18:00,35.5,35.0,30.44,SW,219,0.0,0.0,98,0.00,,,0.00,Wunderground v.1.15,2013-01-09 13:18:00,
2013-01-09 08:24:00,35.9,35.4,30.44,NW,317,0.0,0.0,98,0.00,,,0.00,Wunderground v.1.15,2013-01-09 13:24:00,
2013-01-09 08:30:00,36.3,35.8,30.45,NW,317,0.0,0.0,98,0.00,,,0.00,Wunderground v.1.15,2013-01-09 13:30:00,
2013-01-09 08:36:00,36.5,36.0,30.45,NW,317,0.0,0.0,98,0.00,,,0.00,Wunderground v.1.15,2013-01-09 13:36:00,
2013-01-09 08:42:00,36.9,36.4,30.45,NW,317,0.0,0.0,98,0.00,,,0.00,Wunderground v.1.15,2013-01-09 13:42:00,
2013-01-09 08:48:00,37.4,36.9,30.45,NW,317,0.0,0.0,98,0.00,,,0.00,Wunderground v.1.15,2013-01-09 13:48:00,
2013-01-09 08:54:00,38.0,37.5,30.46,NW,318,0.0,0.0,98,0.00,,,0.00,Wunderground v.1.15,2013-01-09 13:54:00,
2013-01-09 08:59:00,38.4,37.9,30.46,NNW,328,0.0,0.0,98,0.00,,,0.00,Wunderground v.1.15,2013-01-09 13:59:00,
2013-01-09 09:05:00,38.8,38.3,30.46,NNW,328,0.0,0.0,98,0.00,,,0.00,Wunderground v.1.15,2013-01-09 14:05:00,
2013-01-09 09:11:00,39.5,39.0,30.45,North,357,0.0,1.0,98,0.00,,,0.00,Wunderground v.1.15,2013-01-09 14:11:00,
2013-01-09 09:17:00,39.8,39.3,30.45,North,357,0.0,1.0,98,0.00,,,0.00,Wunderground v.1.15,2013-01-09 14:17:00,
2013-01-09 09:23:00,40.7,40.2,30.46,West,280,0.0,0.0,98,0.00,,,0.00,Wunderground v.1.15,2013-01-09 14:23:00,
2013-01-09 09:29:00,41.4,40.6,30.46,West,280,0.0,0.0,97,0.00,,,0.00,Wunderground v.1.15,2013-01-09 14:29:00,
2013-01-09 09:35:00,42.1,41.0,30.47,NNE,23,0.0,1.0,96,0.00,,,0.00,Wunderground v.1.15,2013-01-09 14:35:00,
2013-01-09 09:41:00,42.9,41.8,30.46,NNE,25,0.0,0.0,96,0.00,,,0.00,Wunderground v.1.15,2013-01-09 14:41:00,
2013-01-09 09:47:00,44.1,42.8,30.46,SW,226,0.0,2.0,95,0.00,,,0.00,Wunderground v.1.15,2013-01-09 14:47:00,
2013-01-09 09:53:00,45.3,43.4,30.47,West,263,0.0,1.0,93,0.00,,,0.00,Wunderground v.1.15,2013-01-09 14:53:00,
2013-01-09 09:59:00,46.4,43.6,30.47,NNE,21,0.0,1.0,90,0.00,,,0.00,Wunderground v.1.15,2013-01-09 14:59:00,
2013-01-09 10:05:00,47.3,43.9,30.47,NNE,21,0.0,1.0,88,0.00,,,0.00,Wunderground v.1.15,2013-01-09 15:05:00,
2013-01-09 10:11:00,48.1,44.1,30.47,NNE,20,0.0,0.0,86,0.00,,,0.00,Wunderground v.1.15,2013-01-09 15:11:00,
2013-01-09 10:17:00,48.8,44.2,30.47,ESE,123,0.0,1.0,84,0.00,,,0.00,Wunderground v.1.15,2013-01-09 15:17:00,
2013-01-09 10:23:00,49.5,44.9,30.47,WSW,257,1.0,1.0,84,0.00,,,0.00,Wunderground v.1.15,2013-01-09 15:23:00,
2013-01-09 10:29:00,50.2,45.2,30.47,West,277,1.0,1.0,83,0.00,,,0.00,Wunderground v.1.15,2013-01-09 15:29:00,
2013-01-09 10:34:00,50.9,45.9,30.47,West,278,0.0,1.0,83,0.00,,,0.00,Wunderground v.1.15,2013-01-09 15:34:00,
2013-01-09 10:40:00,51.3,45.3,30.47,West,270,0.0,1.0,80,0.00,,,0.00,Wunderground v.1.15,2013-01-09 15:40:00,
2013-01-09 10:46:00,51.8,45.8,30.46,SW,229,1.0,1.0,80,0.00,,,0.00,Wunderground v.1.15,2013-01-09 15:46:00,
2013-01-09 10:52:00,52.6,46.3,30.45,West,264,1.0,2.0,79,0.00,,,0.00,Wunderground v.1.15,2013-01-09 15:52:00,
2013-01-09 10:58:00,53.6,46.9,30.45,SE,133,1.0,1.0,78,0.00,,,0.00,Wunderground v.1.15,2013-01-09 15:58:00,
2013-01-09 11:04:00,54.8,47.7,30.44,WSW,255,1.0,2.0,77,0.00,,,0.00,Wunderground v.1.15,2013-01-09 16:04:00,
2013-01-09 11:10:00,55.8,47.6,30.44,West,269,1.0,2.0,74,0.00,,,0.00,Wunderground v.1.15,2013-01-09 16:10:00,
2013-01-09 11:16:00,56.5,47.6,30.43,WSW,245,2.0,3.0,72,0.00,,,0.00,Wunderground v.1.15,2013-01-09 16:16:00,
2013-01-09 11:21:00,57.0,48.1,30.43,SSE,158,2.0,2.0,72,0.00,,,0.00,Wunderground v.1.15,2013-01-09 16:21:00,
2013-01-09 11:27:00,57.4,48.4,30.42,SE,143,2.0,2.0,72,0.00,,,0.00,Wunderground v.1.15,2013-01-09 16:27:00,
2013-01-09 11:33:00,57.8,48.8,30.42,WSW,252,2.0,3.0,72,0.00,,,0.00,Wunderground v.1.15,2013-01-09 16:33:00,
2013-01-09 11:39:00,58.3,49.7,30.41,West,259,1.0,2.0,73,0.00,,,0.00,Wunderground v.1.15,2013-01-09 16:39:00,
2013-01-09 11:45:00,58.9,49.5,30.41,WSW,252,1.0,3.0,71,0.00,,,0.00,Wunderground v.1.15,2013-01-09 16:45:00,
2013-01-09 11:51:00,59.5,49.7,30.41,SW,217,2.0,3.0,70,0.00,,,0.00,Wunderground v.1.15,2013-01-09 16:51:00,
2013-01-09 11:57:00,59.8,50.0,30.41,West,271,3.0,3.0,70,0.00,,,0.00,Wunderground v.1.15,2013-01-09 16:57:00,
2013-01-09 12:03:00,59.9,50.5,30.41,West,269,3.0,3.0,71,0.00,,,0.00,Wunderground v.1.15,2013-01-09 17:03:00,
2013-01-09 12:08:00,60.1,50.7,30.41,West,280,3.0,6.0,71,0.00,,,0.00,Wunderground v.1.15,2013-01-09 17:08:00,
2013-01-09 12:14:00,60.8,51.3,30.41,NNW,338,3.0,6.0,71,0.00,,,0.00,Wunderground v.1.15,2013-01-09 17:14:00,
2013-01-09 12:19:00,61.5,51.6,30.40,WSW,252,2.0,4.0,70,0.00,,,0.00,Wunderground v.1.15,2013-01-09 17:19:00,
2013-01-09 12:25:00,61.7,51.4,30.40,West,276,2.0,4.0,69,0.00,,,0.00,Wunderground v.1.15,2013-01-09 17:25:00,
2013-01-09 12:31:00,61.4,51.5,30.40,WSW,250,4.0,6.0,70,0.00,,,0.00,Wunderground v.1.15,2013-01-09 17:31:00,
2013-01-09 12:37:00,61.2,51.3,30.39,WSW,239,3.0,6.0,70,0.00,,,0.00,Wunderground v.1.15,2013-01-09 17:37:00,
2013-01-09 12:43:00,61.3,51.4,30.39,NW,308,3.0,8.0,70,0.00,,,0.00,Wunderground v.1.15,2013-01-09 17:43:00,
2013-01-09 12:48:00,61.4,51.1,30.39,West,269,4.0,4.0,69,0.00,,,0.00,Wunderground v.1.15,2013-01-09 17:48:00,
2013-01-09 12:54:00,61.5,51.2,30.39,SW,221,3.0,4.0,69,0.00,,,0.00,Wunderground v.1.15,2013-01-09 17:54:00,
2013-01-09 13:00:00,61.6,51.7,30.38,WSW,257,2.0,2.0,70,0.00,,,0.00,Wunderground v.1.15,2013-01-09 18:00:00,
2013-01-09 13:06:00,61.7,51.8,30.38,West,269,2.0,6.0,70,0.00,,,0.00,Wunderground v.1.15,2013-01-09 18:06:00,
2013-01-09 13:12:00,61.9,52.4,30.38,West,272,2.0,6.0,71,0.00,,,0.00,Wunderground v.1.15,2013-01-09 18:12:00,
2013-01-09 13:18:00,62.0,52.5,30.38,SW,235,2.0,6.0,71,0.00,,,0.00,Wunderground v.1.15,2013-01-09 18:18:00,
2013-01-09 13:24:00,62.0,52.5,30.38,WSW,250,2.0,6.0,71,0.00,,,0.00,Wunderground v.1.15,2013-01-09 18:24:00,
2013-01-09 13:30:00,62.0,52.1,30.38,WSW,256,2.0,6.0,70,0.00,,,0.00,Wunderground v.1.15,2013-01-09 18:30:00,
2013-01-09 13:36:00,62.0,52.5,30.38,WSW,255,2.0,6.0,71,0.00,,,0.00,Wunderground v.1.15,2013-01-09 18:36:00,
2013-01-09 13:42:00,61.9,52.0,30.38,WSW,248,2.0,6.0,70,0.00,,,0.00,Wunderground v.1.15,2013-01-09 18:42:00,
2013-01-09 13:43:00,61.8,51.9,30.38,WNW,292,2.0,6.0,70,0.00,,,0.00,Wunderground v.1.15,2013-01-09 18:43:00,
2013-01-09 13:44:00,61.8,51.9,30.38,West,278,3.0,6.0,70,0.00,,,0.00,Wunderground v.1.15,2013-01-09 18:44:00,
2013-01-09 13:45:00,61.9,52.0,30.38,WSW,246,3.0,6.0,70,0.00,,,0.00,Wunderground v.1.15,2013-01-09 18:45:00,
2013-01-09 13:46:00,61.8,51.9,30.38,WSW,256,3.0,6.0,70,0.00,,,0.00,Wunderground v.1.15,2013-01-09 18:46:00,
2013-01-09 13:48:00,61.8,51.9,30.38,WNW,283,3.0,3.0,70,0.00,,,0.00,Wunderground v.1.15,2013-01-09 18:48:00,
2013-01-09 13:49:00,61.8,52.3,30.38,WSW,255,3.0,6.0,71,0.00,,,0.00,Wunderground v.1.15,2013-01-09 18:49:00,
2013-01-09 13:50:00,61.8,52.3,30.38,WSW,252,2.0,6.0,71,0.00,,,0.00,Wunderground v.1.15,2013-01-09 18:50:00,
2013-01-09 13:53:00,61.9,52.0,30.38,West,280,2.0,6.0,70,0.00,,,0.00,Wunderground v.1.15,2013-01-09 18:53:00,
2013-01-09 13:59:00,61.8,51.9,30.38,South,188,2.0,6.0,70,0.00,,,0.00,Wunderground v.1.15,2013-01-09 18:59:00,
2013-01-09 14:05:00,61.6,51.7,30.38,WNW,295,2.0,6.0,70,0.00,,,0.00,Wunderground v.1.15,2013-01-09 19:05:00,
2013-01-09 14:11:00,61.4,51.5,30.38,WSW,252,2.0,6.0,70,0.00,,,0.00,Wunderground v.1.15,2013-01-09 19:11:00,
2013-01-09 14:17:00,61.4,51.5,30.38,West,267,2.0,6.0,70,0.00,,,0.00,Wunderground v.1.15,2013-01-09 19:17:00,
2013-01-09 14:23:00,61.4,51.5,30.38,WNW,290,3.0,6.0,70,0.00,,,0.00,Wunderground v.1.15,2013-01-09 19:23:00,
2013-01-09 14:29:00,61.5,51.6,30.38,WSW,255,2.0,6.0,70,0.00,,,0.00,Wunderground v.1.15,2013-01-09 19:29:00,
2013-01-09 14:35:00,61.4,51.5,30.37,West,259,1.0,6.0,70,0.00,,,0.00,Wunderground v.1.15,2013-01-09 19:35:00,
2013-01-09 14:40:00,61.4,51.9,30.38,West,270,1.0,6.0,71,0.00,,,0.00,Wunderground v.1.15,2013-01-09 19:40:00,
2013-01-09 14:45:00,61.4,51.9,30.38,West,262,1.0,6.0,71,0.00,,,0.00,Wunderground v.1.15,2013-01-09 19:45:00,
2013-01-09 14:51:00,61.4,51.9,30.38,West,262,1.0,6.0,71,0.00,,,0.00,Wunderground v.1.15,2013-01-09 19:51:00,
2013-01-09 14:57:00,61.5,52.0,30.38,West,270,0.0,6.0,71,0.00,,,0.00,Wunderground v.1.15,2013-01-09 19:57:00,
2013-01-09 15:03:00,61.6,52.1,30.38,West,262,1.0,6.0,71,0.00,,,0.00,Wunderground v.1.15,2013-01-09 20:03:00,
2013-01-09 15:09:00,61.6,52.1,30.38,NNW,328,1.0,6.0,71,0.00,,,0.00,Wunderground v.1.15,2013-01-09 20:09:00,
2013-01-09 15:14:00,61.6,52.1,30.38,WNW,294,1.0,6.0,71,0.00,,,0.00,Wunderground v.1.15,2013-01-09 20:14:00,
2013-01-09 15:20:00,61.6,52.1,30.39,WNW,298,1.0,6.0,71,0.00,,,0.00,Wunderground v.1.15,2013-01-09 20:20:00,
2013-01-09 15:25:00,61.5,52.4,30.39,West,268,1.0,6.0,72,0.00,,,0.00,Wunderground v.1.15,2013-01-09 20:25:00,
2013-01-09 15:31:00,61.3,51.8,30.39,WSW,256,1.0,6.0,71,0.00,,,0.00,Wunderground v.1.15,2013-01-09 20:31:00,
2013-01-09 15:37:00,61.2,52.1,30.39,West,273,1.0,6.0,72,0.00,,,0.00,Wunderground v.1.15,2013-01-09 20:37:00,
2013-01-09 15:43:00,61.1,52.4,30.39,West,272,0.0,6.0,73,0.00,,,0.00,Wunderground v.1.15,2013-01-09 20:43:00,
2013-01-09 15:48:00,61.0,52.3,30.39,West,274,0.0,6.0,73,0.00,,,0.00,Wunderground v.1.15,2013-01-09 20:48:00,
2013-01-09 15:54:00,60.8,52.1,30.39,West,276,0.0,6.0,73,0.00,,,0.00,Wunderground v.1.15,2013-01-09 20:54:00,
2013-01-09 16:00:00,60.6,52.3,30.39,West,277,0.0,6.0,74,0.00,,,0.00,Wunderground v.1.15,2013-01-09 21:00:00,
2013-01-09 16:06:00,60.3,52.0,30.39,West,277,0.0,6.0,74,0.00,,,0.00,Wunderground v.1.15,2013-01-09 21:06:00,
2013-01-09 16:12:00,60.1,52.1,30.39,West,276,0.0,6.0,75,0.00,,,0.00,Wunderground v.1.15,2013-01-09 21:12:00,
2013-01-09 16:18:00,59.6,52.0,30.39,West,277,0.0,6.0,76,0.00,,,0.00,Wunderground v.1.15,2013-01-09 21:18:00,
2013-01-09 16:24:00,59.4,52.5,30.39,West,276,0.0,6.0,78,0.00,,,0.00,Wunderground v.1.15,2013-01-09 21:24:00,
2013-01-09 16:30:00,59.2,52.7,30.39,West,277,0.0,6.0,79,0.00,,,0.00,Wunderground v.1.15,2013-01-09 21:30:00,
2013-01-09 16:36:00,58.7,52.2,30.39,West,275,0.0,6.0,79,0.00,,,0.00,Wunderground v.1.15,2013-01-09 21:36:00,
2013-01-09 16:41:00,58.6,52.1,30.40,West,277,0.0,6.0,79,0.00,,,0.00,Wunderground v.1.15,2013-01-09 21:41:00,
2013-01-09 16:47:00,58.4,51.9,30.39,West,277,0.0,6.0,79,0.00,,,0.00,Wunderground v.1.15,2013-01-09 21:47:00,
2013-01-09 16:53:00,58.5,52.4,30.39,West,277,0.0,6.0,80,0.00,,,0.00,Wunderground v.1.15,2013-01-09 21:53:00,
2013-01-09 16:59:00,58.6,52.1,30.39,West,277,0.0,6.0,79,0.00,,,0.00,Wunderground v.1.15,2013-01-09 21:59:00,
2013-01-09 17:05:00,58.4,51.9,30.39,West,277,0.0,6.0,79,0.00,,,0.00,Wunderground v.1.15,2013-01-09 22:05:00,
2013-01-09 17:11:00,58.1,51.6,30.39,West,277,0.0,6.0,79,0.00,,,0.00,Wunderground v.1.15,2013-01-09 22:11:00,
2013-01-09 17:17:00,57.8,51.7,30.39,SW,224,0.0,6.0,80,0.00,,,0.00,Wunderground v.1.15,2013-01-09 22:17:00,
2013-01-09 17:23:00,57.5,51.4,30.39,SW,223,0.0,6.0,80,0.00,,,0.00,Wunderground v.1.15,2013-01-09 22:23:00,
2013-01-09 17:29:00,57.2,51.4,30.38,SW,222,0.0,6.0,81,0.00,,,0.00,Wunderground v.1.15,2013-01-09 22:29:00,
2013-01-09 17:35:00,56.7,51.3,30.38,SW,223,0.0,6.0,82,0.00,,,0.00,Wunderground v.1.15,2013-01-09 22:35:00,
2013-01-09 17:41:00,56.2,51.1,30.37,SW,222,0.0,6.0,83,0.00,,,0.00,Wunderground v.1.15,2013-01-09 22:41:00,
2013-01-09 17:47:00,55.9,50.8,30.38,SW,223,0.0,6.0,83,0.00,,,0.00,Wunderground v.1.15,2013-01-09 22:47:00,
2013-01-09 17:53:00,55.5,50.7,30.38,SW,223,0.0,6.0,84,0.00,,,0.00,Wunderground v.1.15,2013-01-09 22:53:00,
2013-01-09 17:59:00,55.0,50.6,30.39,SW,232,0.0,6.0,85,0.00,,,0.00,Wunderground v.1.15,2013-01-09 22:59:00,
2013-01-09 18:04:00,54.6,50.5,30.39,SW,232,0.0,6.0,86,0.00,,,0.00,Wunderground v.1.15,2013-01-09 23:04:00,
2013-01-09 18:10:00,54.4,50.3,30.38,SW,232,0.0,0.0,86,0.00,,,0.00,Wunderground v.1.15,2013-01-09 23:10:00,
2013-01-09 18:16:00,54.2,50.1,30.39,SW,232,0.0,0.0,86,0.00,,,0.00,Wunderground v.1.15,2013-01-09 23:16:00,
2013-01-09 18:22:00,54.1,50.3,30.38,SW,232,0.0,0.0,87,0.00,,,0.00,Wunderground v.1.15,2013-01-09 23:22:00,
2013-01-09 18:28:00,53.9,50.1,30.38,SW,231,0.0,0.0,87,0.00,,,0.00,Wunderground v.1.15,2013-01-09 23:28:00,
2013-01-09 18:34:00,53.8,50.0,30.38,West,280,0.0,0.0,87,0.00,,,0.00,Wunderground v.1.15,2013-01-09 23:34:00,
2013-01-09 18:40:00,53.4,49.9,30.38,NW,319,0.0,0.0,88,0.00,,,0.00,Wunderground v.1.15,2013-01-09 23:40:00,
2013-01-09 18:45:00,53.3,49.8,30.38,NW,319,0.0,0.0,88,0.00,,,0.00,Wunderground v.1.15,2013-01-09 23:45:00,
2013-01-09 18:51:00,53.2,50.0,30.39,NW,319,0.0,0.0,89,0.00,,,0.00,Wunderground v.1.15,2013-01-09 23:51:00,
2013-01-09 18:57:00,53.1,49.9,30.39,NW,319,0.0,0.0,89,0.00,,,0.00,Wunderground v.1.15,2013-01-09 23:57:00,
2013-01-09 19:03:00,52.9,49.7,30.39,NW,319,0.0,0.0,89,0.00,,,0.00,Wunderground v.1.15,2013-01-10 00:03:00,
2013-01-09 19:09:00,52.8,49.6,30.39,NW,319,0.0,0.0,89,0.00,,,0.00,Wunderground v.1.15,2013-01-10 00:09:00,
2013-01-09 19:15:00,52.4,48.9,30.39,NNE,20,0.0,2.0,88,0.00,,,0.00,Wunderground v.1.15,2013-01-10 00:15:00,
2013-01-09 19:21:00,51.9,48.8,30.40,NNE,20,0.0,0.0,89,0.00,,,0.00,Wunderground v.1.15,2013-01-10 00:21:00,
2013-01-09 19:27:00,51.6,48.8,30.40,NNE,20,0.0,0.0,90,0.00,,,0.00,Wunderground v.1.15,2013-01-10 00:27:00,
2013-01-09 19:33:00,51.5,49.0,30.40,NNE,20,0.0,0.0,91,0.00,,,0.00,Wunderground v.1.15,2013-01-10 00:33:00,
2013-01-09 19:39:00,51.3,48.5,30.40,NNE,20,0.0,0.0,90,0.00,,,0.00,Wunderground v.1.15,2013-01-10 00:39:00,
2013-01-09 19:44:00,51.2,48.7,30.40,NNE,20,0.0,0.0,91,0.00,,,0.00,Wunderground v.1.15,2013-01-10 00:44:00,
2013-01-09 19:50:00,51.0,48.5,30.40,NNE,20,0.0,0.0,91,0.00,,,0.00,Wunderground v.1.15,2013-01-10 00:50:00,
2013-01-09 19:56:00,50.7,48.2,30.40,NNE,20,0.0,0.0,91,0.00,,,0.00,Wunderground v.1.15,2013-01-10 00:56:00,
2013-01-09 20:02:00,50.4,48.2,30.41,NNE,20,0.0,0.0,92,0.00,,,0.00,Wunderground v.1.15,2013-01-10 01:02:00,
2013-01-09 20:08:00,50.2,48.0,30.41,NNE,21,0.0,0.0,92,0.00,,,0.00,Wunderground v.1.15,2013-01-10 01:08:00,
2013-01-09 20:14:00,49.9,47.7,30.41,NNE,20,0.0,0.0,92,0.00,,,0.00,Wunderground v.1.15,2013-01-10 01:14:00,
2013-01-09 20:20:00,49.7,47.8,30.41,NNE,20,0.0,0.0,93,0.00,,,0.00,Wunderground v.1.15,2013-01-10 01:20:00,
2013-01-09 20:26:00,49.5,47.6,30.41,NNE,20,0.0,0.0,93,0.00,,,0.00,Wunderground v.1.15,2013-01-10 01:26:00,
2013-01-09 20:32:00,49.3,47.4,30.41,NNE,20,0.0,0.0,93,0.00,,,0.00,Wunderground v.1.15,2013-01-10 01:32:00,
2013-01-09 20:38:00,49.1,47.2,30.41,NNE,23,0.0,0.0,93,0.00,,,0.00,Wunderground v.1.15,2013-01-10 01:38:00,
2013-01-09 20:44:00,48.8,46.9,30.42,NNE,23,0.0,0.0,93,0.00,,,0.00,Wunderground v.1.15,2013-01-10 01:44:00,
2013-01-09 20:50:00,48.3,46.4,30.42,NNE,23,0.0,0.0,93,0.00,,,0.00,Wunderground v.1.15,2013-01-10 01:50:00,
2013-01-09 20:56:00,48.1,46.5,30.42,NNE,20,0.0,0.0,94,0.00,,,0.00,Wunderground v.1.15,2013-01-10 01:56:00,
2013-01-09 21:02:00,47.9,46.3,30.43,NNE,20,0.0,0.0,94,0.00,,,0.00,Wunderground v.1.15,2013-01-10 02:02:00,
2013-01-09 21:08:00,47.7,46.3,30.43,NNE,20,0.0,0.0,95,0.00,,,0.00,Wunderground v.1.15,2013-01-10 02:08:00,
2013-01-09 21:14:00,47.6,46.2,30.42,ENE,59,0.0,1.0,95,0.00,,,0.00,Wunderground v.1.15,2013-01-10 02:14:00,
2013-01-09 21:19:00,47.3,45.9,30.42,ENE,59,1.0,1.0,95,0.00,,,0.00,Wunderground v.1.15,2013-01-10 02:19:00,
2013-01-09 21:25:00,47.0,45.6,30.43,ENE,58,0.0,1.0,95,0.00,,,0.00,Wunderground v.1.15,2013-01-10 02:25:00,
2013-01-09 21:31:00,46.6,45.2,30.43,ENE,60,0.0,0.0,95,0.00,,,0.00,Wunderground v.1.15,2013-01-10 02:31:00,
2013-01-09 21:36:00,46.3,44.9,30.43,ENE,58,0.0,0.0,95,0.00,,,0.00,Wunderground v.1.15,2013-01-10 02:36:00,
2013-01-09 21:41:00,46.1,45.0,30.43,ENE,58,0.0,0.0,96,0.00,,,0.00,Wunderground v.1.15,2013-01-10 02:41:00,
2013-01-09 21:47:00,45.9,44.8,30.43,ENE,58,0.0,0.0,96,0.00,,,0.00,Wunderground v.1.15,2013-01-10 02:47:00,
2013-01-09 21:53:00,45.6,44.5,30.42,ENE,58,0.0,0.0,96,0.00,,,0.00,Wunderground v.1.15,2013-01-10 02:53:00,
2013-01-09 21:59:00,45.6,44.5,30.43,ENE,58,0.0,0.0,96,0.00,,,0.00,Wunderground v.1.15,2013-01-10 02:59:00,
2013-01-09 22:05:00,45.3,44.2,30.43,ENE,58,0.0,0.0,96,0.00,,,0.00,Wunderground v.1.15,2013-01-10 03:05:00,
2013-01-09 22:10:00,45.4,44.6,30.43,ENE,58,0.0,0.0,97,0.00,,,0.00,Wunderground v.1.15,2013-01-10 03:10:00,
2013-01-09 22:16:00,45.4,44.6,30.43,ENE,58,0.0,0.0,97,0.00,,,0.00,Wunderground v.1.15,2013-01-10 03:16:00,
2013-01-09 22:21:00,45.3,44.2,30.43,ENE,58,0.0,0.0,96,0.00,,,0.00,Wunderground v.1.15,2013-01-10 03:21:00,
2013-01-09 22:27:00,45.0,43.9,30.43,ENE,60,0.0,0.0,96,0.00,,,0.00,Wunderground v.1.15,2013-01-10 03:27:00,
2013-01-09 22:33:00,45.0,43.9,30.44,ENE,60,0.0,0.0,96,0.00,,,0.00,Wunderground v.1.15,2013-01-10 03:33:00,
2013-01-09 22:39:00,44.7,43.6,30.44,ENE,60,0.0,0.0,96,0.00,,,0.00,Wunderground v.1.15,2013-01-10 03:39:00,
2013-01-09 22:45:00,44.5,43.4,30.44,ENE,59,0.0,0.0,96,0.00,,,0.00,Wunderground v.1.15,2013-01-10 03:45:00,
2013-01-09 22:50:00,44.7,43.9,30.44,ENE,60,0.0,0.0,97,0.00,,,0.00,Wunderground v.1.15,2013-01-10 03:50:00,
2013-01-09 22:56:00,44.6,43.8,30.44,NE,56,0.0,0.0,97,0.00,,,0.00,Wunderground v.1.15,2013-01-10 03:56:00,
2013-01-09 23:02:00,44.4,43.3,30.44,NE,55,0.0,0.0,96,0.00,,,0.00,Wunderground v.1.15,2013-01-10 04:02:00,
2013-01-09 23:08:00,44.3,43.5,30.44,NE,56,0.0,0.0,97,0.00,,,0.00,Wunderground v.1.15,2013-01-10 04:08:00,
2013-01-09 23:14:00,44.3,43.5,30.44,NE,56,0.0,0.0,97,0.00,,,0.00,Wunderground v.1.15,2013-01-10 04:14:00,
2013-01-09 23:20:00,44.4,43.6,30.44,ENE,57,0.0,0.0,97,0.00,,,0.00,Wunderground v.1.15,2013-01-10 04:20:00,
2013-01-09 23:26:00,44.4,43.6,30.44,East,85,0.0,0.0,97,0.00,,,0.00,Wunderground v.1.15,2013-01-10 04:26:00,
2013-01-09 23:32:00,44.3,43.5,30.45,East,85,0.0,0.0,97,0.00,,,0.00,Wunderground v.1.15,2013-01-10 04:32:00,
2013-01-09 23:38:00,44.2,43.4,30.45,East,85,0.0,0.0,97,0.00,,,0.00,Wunderground v.1.15,2013-01-10 04:38:00,
2013-01-09 23:44:00,44.2,43.4,30.45,East,86,0.0,0.0,97,0.00,,,0.00,Wunderground v.1.15,2013-01-10 04:44:00,
2013-01-09 23:50:00,44.2,43.4,30.44,East,85,0.0,0.0,97,0.00,,,0.00,Wunderground v.1.15,2013-01-10 04:50:00,
2013-01-09 23:55:00,44.2,43.4,30.45,East,84,0.0,0.0,97,0.00,,,0.00,Wunderground v.1.15,2013-01-10 04:55:00,